Tracking 18843 objects as of 20-November-2017
HD Live streaming from Space Station
objects crossing your sky now

SL-3 R/B

Track SL-3 R/B now!
10-day predictions
SL-3 R/B is classified as:


NORAD ID: 16111
Int'l Code: 1985-090B
Perigee: 399.6 km
Apogee: 421.2 km
Inclination: 97.4 °
Period: 92.6 minutes
Semi major axis: 6781 km
RCS: 5.946 m2 (large)
Launch date: October 3, 1985
Source: Commonwealth of Independent States (former USSR) (CIS)
Launch site: TYURATAM MISSILE AND SPACE COMPLEX (TTMTR)

Note: This is a ROCKET BODY
aabbcc
Your satellite tracking list
Your tracking list is empty




NASA's NSSDC Master Catalog

Two Line Element Set (TLE):
1 16111U 85090B   17324.52789197  .00007110  00000-0  10857-3 0  9990
2 16111  97.3753  80.3374 0015948 155.1357 205.0669 15.54613596768560
Source of the keplerian elements: AFSPC